This is the latest recevied weather packets stored in our database for station/object KD4WXI. If no packets are shown the sender has not sent any weather packets the latest 10 day(s).
| Time | Temp. | Humidity | Pressure | Rain* | Wind** | Luminosity | Snow |
|---|---|---|---|---|---|---|---|
| 1777307460 | 18.33° C | 59% | 1024.5 hPa | 0 mm | - | 759 W/m² | - |
| 1777307158 | 18.33° C | 55% | 1024.1 hPa | 0 mm | - | 757 W/m² | - |
| 1777306855 | 17.78° C | 57% | 1023.9 hPa | 0 mm | - | 731 W/m² | - |
| 1777306552 | 17.78° C | 60% | 1024.2 hPa | 0 mm | - | 687 W/m² | - |
| 1777306248 | 17.78° C | 60% | 1024.2 hPa | 0 mm | - | 700 W/m² | - |
| 1777305948 | 17.78° C | 63% | 1024.3 hPa | 0 mm | - | 707 W/m² | - |
| 1777305644 | 17.22° C | 63% | 1024.1 hPa | 0 mm | - | 736 W/m² | - |
| 1777305341 | 17.78° C | 61% | 1024 hPa | 0 mm | - | 699 W/m² | - |
| 1777305040 | 16.67° C | 61% | 1024.2 hPa | 0 mm | - | 672 W/m² | - |
| 1777304735 | 16.67° C | 63% | 1024.4 hPa | 0 mm | - | 599 W/m² | - |
| 1777304432 | 16.11° C | 64% | 1024.2 hPa | 0 mm | - | 557 W/m² | - |
| 1777304131 | 16.67° C | 65% | 1024.3 hPa | 0 mm | - | 433 W/m² | - |
| 1777303827 | 16.11° C | 64% | 1024.2 hPa | 0 mm | - | 528 W/m² | - |
| 1777303524 | 15.56° C | 65% | 1024.4 hPa | 0 mm | - | 540 W/m² | - |
| 1777303221 | 16.11° C | 65% | 1024.6 hPa | 0 mm | - | 525 W/m² | - |
| 1777302920 | 15.56° C | 65% | 1024.1 hPa | 0 mm | - | 542 W/m² | - |
| 1777302616 | 15.56° C | 68% | 1024.2 hPa | 0 mm | - | 506 W/m² | - |
| 1777302315 | 16.11° C | 65% | 1024.4 hPa | 0 mm | - | 596 W/m² | - |
| 1777302012 | 16.11° C | 62% | 1024.5 hPa | 0 mm | - | 609 W/m² | - |
| 1777301710 | 16.67° C | 67% | 1024.5 hPa | 0 mm | - | 610 W/m² | - |
| 1777301406 | 15.56° C | 66% | 1024.4 hPa | 0 mm | - | 588 W/m² | - |
| 1777301102 | 16.11° C | 64% | 1024.5 hPa | 0 mm | - | 586 W/m² | - |
| 1777300800 | 16.11° C | 64% | 1024.6 hPa | 0 mm | - | 625 W/m² | - |
| 1777300498 | 16.11° C | 63% | 1024.8 hPa | 0 mm | - | 586 W/m² | - |
| 1777300195 | 15.56° C | 64% | 1024.7 hPa | 0 mm | - | 583 W/m² | - |
* Rain latest hour (hover to see other rain measurements)
** Current wind speed in m/s (hover to see current wind gust speed)